DELTA 1 DEB, 10868

Orbit data source: Space-Track

DELTA 1 DEB, 10868 is space debris in SSO originally from a launch on Thu, 29 Jul 1976 UTC launched from the Air Force Western Test Range (AFWTR). Debris objects in space refer to the collection of defunct objects orbiting the Earth. Examples of debris include non-operational satellites, rocket bodies, and fragments generated from explosions, collisions, or faulty payload assembly.

Loading next visibility...
Identifier
10868, 1976-077CW
Orbit
SSO
Country
Flag of USUS
Related business
Manufacturer
Unknown
Mission
Spacecraft
Bus & Motor
Unknown
Mass
Unknown
Launch date (UTC)
1976-07-29 (50 years ago)
Launch vehicle
Unknown
Launch site
Air Force Western Test Range (AFWTR)
Object type
Payload
Rocket body
Debris
Shape & HBR
Unknown shape, 0.1 m
Radar Cross Section
Small (<0.1 m²)

Expand to show TLE details & history
Last TLE update: 9 hours ago

TLE from 9 hours ago
0 DELTA 1 DEB
1 10868U 76077CW  26036.53139789  .00000516  00000-0  41638-2 0  9998
2 10868 102.4220 240.5340 0107171 305.2370 112.6744 12.39489437226534
Epoch: 2026-02-05T12:45Z
TLE epoch observation values (Epoch: 2026-02-05T12:45:12.777Z)
Latitude
56.96388°
Longitude
-106.14986°
Altitude
1,551.438 km
Speed
7.081 km/s
True Right ascension
14h 43m 20s
True Declination
56° 49' 20"
Sunlit
Object was in daylight at epoch
Visualization orbit readout
Latitude
Unknown
Longitude
Unknown
Altitude
Unknown
Speed
Unknown
Apparent Right ascension
Unknown
Apparent Declination
Unknown
Sunlit
N/A
Visualization observer readout
Local Sidereal Time
23:57:57
Azimuth
Unknown
Elevation
Unknown
Doppler factor
Unknown
Orbital elements
Apogee altitude
1,590.868 km
Perigee altitude
1,421.87 km
Semi-major axis
7,884.506 km
Eccentricity
0.01072
Inclination
102.422°
RAAN
240.534°
Arg. of periapsis
305.237°
True anomaly
113.80167°
Mean anomaly
112.6744°
Eccentric anomaly
113.23863°
Mean motion
3.10014 °/min
Orbital period
116.12 mins
BSTAR
0.0041638
Loading maneuver chart data...
Computing Atmospheric mass density...
Loading historical data...
Loading historical data...
Loading historical data...
Loading historical data...
Loading historical data...
Loading historical data...
Loading historical data...

Documentation

Showing up to 5 results
|